Theta_e
332 331 333 333 334 334 338 333 327 332 333 334 332 333 334 333 332 337 338 337 336 335 334 331 331 330 330 331 330 329 328 330 330 330 329 330 331 331 329 329 328 329 329
332 331 332 336 334 334 338 333 328 332 333 333 332 331 333 334 335 337 336 335 334 332 330 330 329 328 329 329 330 330 328 325 325 325 326 327 327 328 328 328 328 328 328
332 333 332 333 334 335 337 333 327 331 333 333 332 332 332 333 335 336 335 333 332 330 329 328 326 327 327 326 326 328 329 326 326 325 325 326 326 327 327 326 327 327 326
333 333 332 332 333 335 336 333 327 330 331 330 330 330 331 332 335 335 334 331 330 329 328 327 326 327 328 327 327 327 325 323 324 325 325 325 327 330 328 327 328 330 332
333 333 333 331 334 335 335 333 327 328 330 330 328 329 330 332 333 334 333 330 329 327 327 326 326 328 326 325 326 322 323 324 324 326 325 327 327 329 328 329 328 327 326
338 335 334 331 333 334 334 334 327 329 331 330 328 328 330 330 332 332 331 329 327 326 326 325 327 326 324 324 325 324 324 325 326 327 328 328 327 329 329 326 324 323 322
339 338 335 331 333 335 334 334 328 331 332 330 328 328 328 329 330 330 328 326 325 325 325 324 324 323 325 325 325 325 325 328 328 328 328 326 326 325 324 323 322 321 320
338 339 334 331 333 335 335 335 331 331 331 329 327 327 327 328 328 327 325 324 324 324 323 316 322 323 324 325 324 324 325 325 325 326 324 323 323 322 322 321 320 319 318
337 338 332 332 333 334 334 334 333 331 329 327 326 325 325 325 325 323 321 322 322 322 321 315 322 321 319 320 320 320 322 322 322 322 323 321 322 320 318 317 317 316 316
336 336 331 332 334 332 333 333 333 331 329 327 325 322 322 320 319 317 318 320 321 321 312 313 318 319 319 320 319 319 318 318 318 319 322 323 321 318 317 316 315 314 313
335 335 332 332 334 331 333 332 332 333 330 328 325 322 320 319 319 318 316 315 315 311 307 311 317 318 319 320 320 319 320 320 321 321 323 320 319 317 316 315 314 313 312
335 335 335 333 333 331 332 333 333 333 332 329 326 322 320 319 320 318 316 312 310 308 308 312 318 319 318 319 320 320 320 321 322 323 321 319 318 316 314 313 313 311 311
335 335 335 335 334 333 332 331 333 333 333 331 328 323 322 323 323 318 317 314 312 309 310 312 315 317 318 318 318 318 319 322 322 322 321 318 316 315 313 312 312 310 309
336 335 334 334 335 334 333 333 331 332 333 332 330 326 325 325 326 319 317 315 313 310 313 315 315 315 316 316 316 317 320 321 321 320 319 317 314 315 313 312 310 309 309
336 335 335 335 335 334 333 333 333 331 333 332 331 329 328 327 326 321 317 316 314 313 314 314 315 315 314 314 315 316 315 316 318 316 316 315 314 313 312 311 310 309 308
334 335 336 337 337 335 334 334 333 333 333 332 332 331 329 328 327 325 319 316 314 314 314 314 315 314 314 313 314 315 315 315 315 314 314 314 312 311 311 310 309 308 307
334 335 333 336 337 337 336 334 334 334 333 333 334 333 330 331 329 328 323 317 316 315 314 314 314 312 312 311 312 312 313 313 313 312 313 312 310 310 309 309 308 307 306
331 332 334 334 333 334 336 335 332 334 335 334 334 334 334 332 332 329 327 324 316 314 314 314 313 310 310 310 310 309 309 309 310 310 310 309 308 307 307 307 306 306 305
330 331 333 334 335 334 333 333 334 335 334 335 334 335 335 334 333 331 329 327 321 314 314 315 312 310 306 305 305 306 306 305 305 306 306 306 306 305 304 304 304 304 303
326 330 332 333 334 334 333 334 333 333 332 331 331 331 331 333 333 332 330 329 325 317 313 313 313 307 305 301 298 297 298 300 300 300 301 301 301 302 301 302 302 301 301
324 327 331 333 334 334 332 332 332 331 332 332 332 331 330 330 331 333 331 329 327 319 316 313 310 306 300 297 295 292 292 292 293 294 297 297 296 296 298 299 300 299 299
319 326 329 332 333 333 332 331 330 330 330 331 331 331 331 329 329 332 331 329 328 320 314 312 311 302 297 297 295 292 292 291 291 291 291 292 294 293 292 294 296 295 295
318 322 326 329 332 332 331 330 329 329 328 329 329 330 330 329 328 327 328 328 327 322 317 315 311 307 300 296 299 299 294 295 289 290 290 290 289 289 289 289 290 289 289
316 318 322 325 329 331 331 329 328 325 323 323 324 327 328 329 329 328 326 327 326 323 320 316 313 310 304 298 296 300 300 297 293 289 289 290 290 289 288 287 287 287 288
314 316 318 322 326 328 329 327 325 323 321 320 320 320 321 324 327 327 325 324 325 323 320 319 311 307 307 304 299 300 298 296 294 290 289 288 288 289 288 287 286 286 286
314 314 316 318 321 322 323 324 322 321 319 317 317 316 316 317 318 318 323 322 323 322 319 318 316 313 310 305 302 303 302 298 297 293 288 286 288 288 288 287 286 285 285
Wind_Speed
20 18 14 11 14 15 14 12 14 17 16 14 14 15 16 18 19 18 22 23 24 22 21 20 20 22 22 23 26 28 27 26 27 28 27 27 27 27 27 28 29 30 29
24 20 16 11 11 12 13 12 14 18 16 13 14 15 15 16 16 18 20 22 22 21 19 20 19 21 22 22 21 22 27 29 29 30 33 31 29 28 28 28 28 28 29
23 19 16 13 12 11 13 12 13 15 14 13 14 16 15 16 17 19 20 21 20 19 18 19 20 22 23 24 21 22 23 26 29 31 32 30 27 27 27 28 27 28 27
23 20 17 14 13 12 12 11 13 15 15 14 14 16 17 16 16 18 19 19 19 18 18 19 20 21 22 26 24 22 21 22 25 30 30 28 28 27 28 27 28 28 30
22 18 16 15 15 14 14 12 13 13 15 15 15 16 16 16 16 17 18 20 18 17 18 19 19 20 20 22 23 24 25 24 27 29 29 28 28 27 27 29 29 30 32
20 18 17 17 17 17 15 13 12 13 14 14 14 16 16 16 15 17 17 18 18 18 18 18 18 19 20 21 21 23 23 24 25 27 27 29 28 27 28 27 28 27 28
20 17 18 18 18 19 17 14 13 14 14 14 14 15 15 16 15 15 16 18 17 18 18 18 20 20 22 23 19 20 20 24 28 30 29 28 26 23 24 25 25 25 24
21 21 19 19 19 19 17 16 14 14 13 14 14 15 15 16 15 16 17 18 17 18 17 19 21 20 22 23 25 23 22 24 25 27 26 25 23 21 22 24 25 26 26
20 21 21 21 18 18 18 16 15 14 14 13 13 15 15 16 16 16 16 17 18 18 18 21 21 21 22 21 21 22 20 18 21 22 23 22 24 24 24 24 24 24 25
20 16 21 21 19 19 18 17 16 15 14 13 13 14 16 16 15 15 17 17 17 17 18 20 20 20 20 19 18 18 16 17 18 20 21 25 24 23 23 23 23 23 23
19 19 20 21 20 20 20 18 17 16 15 14 14 14 16 17 16 16 15 16 16 16 17 20 21 19 17 15 14 17 21 22 21 21 24 24 23 20 22 22 22 22 22
23 21 21 21 21 21 21 21 19 19 18 16 16 17 18 18 16 16 16 15 15 16 19 21 21 19 16 17 18 17 18 20 19 22 25 24 21 19 20 20 21 21 21
28 27 24 23 22 23 23 22 21 21 21 19 19 19 19 18 16 17 17 17 18 19 21 20 18 17 16 14 16 16 16 19 22 23 23 20 18 17 18 19 19 19 19
31 30 28 26 26 26 23 25 24 23 24 24 23 21 22 19 18 20 20 19 19 23 22 18 15 13 15 15 14 17 18 20 20 23 20 16 15 16 16 17 17 17 18
25 28 28 29 30 29 27 26 26 26 27 27 25 24 25 25 23 22 22 21 21 23 19 18 16 15 17 17 17 19 18 17 17 18 18 15 17 14 15 15 15 15 16
32 33 32 29 31 32 30 29 28 29 27 27 29 29 30 29 26 25 25 25 23 23 20 17 18 18 18 20 20 20 21 19 17 16 17 19 17 14 14 14 14 14 14
37 36 34 38 33 33 31 30 28 30 29 30 30 30 32 31 30 28 27 28 27 24 22 19 19 19 20 20 20 20 22 21 19 18 19 19 18 17 14 13 13 13 13
37 38 37 38 40 39 36 33 32 32 31 30 29 29 32 33 33 32 30 29 30 27 26 24 24 23 21 22 23 21 21 21 22 19 18 20 21 19 16 12 12 12 12
39 39 40 41 42 42 39 35 36 35 36 31 28 27 29 34 35 36 34 32 30 30 30 29 27 26 26 23 22 22 21 21 20 20 19 19 18 19 19 18 15 13 11
38 38 41 41 43 40 40 35 31 32 34 36 36 36 31 30 35 35 38 36 34 35 35 32 30 28 27 26 22 19 18 20 20 18 19 20 18 18 16 19 19 18 12
37 37 39 41 41 40 40 43 35 37 35 34 33 33 35 35 34 36 36 37 37 40 40 37 34 32 28 27 25 14 11 13 18 20 20 19 20 20 19 20 20 19 14
39 41 39 41 41 41 41 41 35 34 39 39 38 35 33 34 34 36 37 38 39 40 41 41 38 32 24 35 13 15 3 7 14 19 21 22 22 22 22 22 21 20 17
40 42 43 43 42 41 40 37 35 31 34 36 39 40 40 38 35 38 39 40 40 42 45 45 45 42 30 37 25 11 4 5 7 18 24 24 24 24 24 24 24 22 20
42 43 42 42 42 42 42 40 40 32 30 35 34 42 41 41 38 35 39 39 40 44 44 47 48 47 37 34 34 25 10 10 4 3 18 26 26 27 26 26 25 23 21
35 38 38 37 37 40 42 41 39 36 34 32 33 35 39 40 42 36 40 40 41 43 45 48 47 44 46 37 39 30 21 17 11 5 3 14 27 31 29 29 27 25 24
20 27 30 32 34 34 35 38 38 38 37 34 31 32 33 34 37 39 40 41 41 44 45 48 48 49 48 40 42 31 31 17 16 9 3 7 19 24 32 29 28 28 27
Wind_Direction
159 154 144 128 112 104 97 91 91 95 92 90 91 90 92 98 97 88 96 93 88 86 86 85 86 84 88 89 86 83 83 86 86 86 84 79 79 78 75 73 72 72 72
151 155 149 145 118 107 115 95 94 96 96 100 96 93 91 94 94 91 97 94 90 88 87 88 88 91 92 88 87 88 87 84 89 89 87 81 80 79 80 78 76 74 71
154 156 155 150 135 125 116 104 99 108 108 101 101 97 94 95 95 96 97 94 90 90 90 89 89 97 94 84 93 101 95 91 89 89 89 86 84 83 81 80 79 77 76
158 157 158 151 136 136 130 118 113 113 109 107 104 101 99 98 98 100 98 97 94 94 92 91 94 98 90 86 87 98 98 93 94 94 92 91 88 86 83 85 82 79 78
162 163 159 151 148 147 143 137 128 121 114 112 107 105 104 105 106 107 100 100 98 96 95 94 96 96 93 97 95 91 95 96 98 97 94 94 89 88 88 85 81 79 79
156 166 162 160 158 155 157 148 138 129 120 115 113 111 110 111 116 110 105 103 104 101 99 99 101 98 93 97 108 107 104 105 104 100 100 94 92 86 85 84 79 79 76
159 163 166 165 161 163 162 154 146 136 129 123 121 118 118 120 121 118 114 110 108 107 105 103 111 101 96 103 106 109 108 106 106 98 94 93 92 87 84 83 82 82 81
167 167 168 167 164 167 166 159 150 148 137 132 129 126 125 125 125 122 118 115 114 110 108 114 115 103 103 108 105 107 110 108 104 102 98 94 93 92 90 89 87 85 82
170 167 172 171 168 170 171 166 159 159 147 141 135 134 133 132 132 126 123 120 117 115 114 120 119 114 110 112 113 117 119 119 120 108 105 101 101 96 94 93 91 89 86
172 183 175 174 173 175 176 176 171 164 155 153 148 143 141 139 137 131 129 126 123 121 124 128 127 124 119 114 121 121 120 121 116 120 112 110 103 100 96 93 91 88 85
188 185 182 181 181 179 181 178 179 173 166 164 158 153 148 142 143 138 135 133 131 130 128 130 129 128 128 122 123 123 121 119 122 121 121 112 106 101 97 94 91 88 88
185 184 190 188 189 186 185 185 184 180 179 177 172 165 155 153 151 151 145 141 139 133 131 131 129 127 125 122 122 126 129 129 125 127 121 117 110 102 99 95 93 91 90
186 183 195 193 194 192 193 194 190 188 188 187 186 174 166 168 166 167 159 155 149 143 137 137 141 140 123 131 139 134 139 130 132 125 120 118 115 108 104 101 97 95 93
184 187 192 200 200 200 204 197 199 198 196 195 192 183 180 186 182 181 173 166 161 153 152 158 160 162 150 135 138 149 139 136 129 123 123 121 127 112 110 107 101 99 97
190 188 191 201 201 204 208 209 205 204 204 204 199 200 195 197 191 192 184 176 170 167 172 170 174 174 162 153 148 150 147 157 145 136 131 137 132 122 119 113 109 106 102
215 211 199 196 200 205 208 210 211 207 210 212 208 202 204 205 203 199 195 188 184 184 187 186 182 179 171 168 162 164 159 168 169 164 156 145 135 136 130 125 120 115 111
213 216 215 210 205 200 204 212 215 211 213 218 215 213 208 214 211 209 207 200 195 194 197 191 184 180 173 171 169 172 171 172 177 174 165 164 154 137 133 131 132 127 122
214 216 216 213 214 213 213 215 220 217 213 217 222 218 215 217 217 212 216 212 204 196 198 194 188 182 182 179 177 174 175 175 179 178 169 167 163 152 134 135 142 139 134
218 216 215 215 214 212 213 218 221 221 219 215 215 215 217 218 220 221 219 219 212 203 202 200 194 191 181 178 179 181 181 179 180 183 180 178 176 173 166 156 147 148 145
216 217 216 215 217 215 215 212 218 220 223 226 227 228 226 224 223 222 221 221 216 207 204 203 199 193 189 178 173 174 183 189 189 188 194 194 192 191 183 176 166 155 151
215 211 214 210 214 213 211 211 214 215 216 220 221 225 228 226 229 223 226 225 217 213 210 207 196 191 181 179 155 147 166 196 205 205 206 206 202 201 195 187 184 176 159
211 212 211 214 213 215 214 217 215 218 222 224 225 223 221 222 229 228 226 225 220 216 211 207 201 182 181 187 177 141 154 223 215 215 210 211 212 205 200 195 196 194 191
212 210 213 214 216 214 217 215 215 220 228 227 226 226 225 225 229 233 234 230 225 220 216 214 208 198 183 195 200 162 144 214 166 208 212 214 212 209 208 207 207 209 210
215 216 215 216 217 216 217 216 215 214 217 226 228 228 227 224 229 230 235 233 229 225 220 219 215 208 195 192 207 218 212 159 163 182 212 211 216 217 212 209 209 212 213
219 219 218 217 216 219 219 221 220 218 224 229 234 236 235 231 230 232 236 236 230 224 224 225 214 207 207 203 205 208 217 193 187 151 176 199 213 217 218 215 211 211 213
221 223 220 219 220 223 222 223 225 226 226 230 231 232 234 235 235 237 235 239 235 230 226 226 224 220 214 211 217 210 205 189 192 166 162 185 203 212 215 214 219 213 215